Hourly Data Report for October 03, 2014

All times are specified in Local Standard Time (LST). Add 1 hour to adjust for Daylight Saving Time where and when it is observed.

PANGNIRTUNG
NUNAVUT

66°08'36.300" N
65°42'40.500" W
22.60 m
2403049
71826
WXP

Download Data

Hourly Data (October 2014)
Hourly Data Report for October 3, 2014
Temp Definition
°C
Dew Point Temp Definition
°C
Rel Hum Definition
%
Wind Dir Definition
10's deg

Wind Spd Definition
km/h
Visibility Definition
km
Stn Press Definition
kPa
Hmdx Definition


Wind Chill Definition


Weather Definition


TIME
00:00 -6.3 -11.3 68 12 12   100.48   -11 LegendNANA
01:00 -7.3 -11.7 71 16 3   100.49   -9 LegendNANA
02:00 -7.9 -12.0 73 16 2   100.48   -9 LegendNANA
03:00 -7.2 -12.2 67 13 8   100.44   -11 LegendNANA
04:00 -7.2 -12.0 68 12 8   100.44   -11 LegendNANA
05:00 -7.0 -12.0 67 11 13   100.44   -13 LegendNANA
06:00 -7.5 -12.2 69 14 5   100.45   -10 LegendNANA
07:00 -6.3 -11.8 65 15 3   100.49   -8 LegendNANA
08:00 -6.0 -12.2 62 13 3   100.51   -7 LegendNANA
09:00 -3.9 -11.9 54 4 8   100.53   -7 LegendNANA
10:00 -3.5 -10.7 57 3 5   100.55   -6 LegendNANA
11:00 -2.0 -12.0 46 5 8   100.53   -5 LegendNANA
12:00 -2.0 -12.3 45 3 10   100.56   -6 LegendNANA
13:00 -1.4 -12.6 42 4 8   100.60   -4 LegendNANA
14:00 -2.0 -11.5 48 13 7   100.63   -5 LegendNANA
15:00 -2.1 -11.7 48 15 6   100.66   -4 LegendNANA
16:00 -3.3 -11.4 53 15 14   100.72   -8 LegendNANA
17:00 -3.8 -11.6 55 14 16   100.78   -9 LegendNANA
18:00 -5.5 -11.5 63 10 20   100.83   -12 LegendNANA
19:00 -4.1 -11.5 56 13 14   100.87   -9 LegendNANA
20:00 -4.6 -12.0 56 10 7   100.91   -8 LegendNANA
21:00 -3.9 -11.7 55 12 1   100.94   -4 LegendNANA
22:00 -4.8 -12.4 55 11 6   100.96   -8 LegendNANA
23:00 -5.1 -11.8 59 10 11   101.01   -10 LegendNANA

Notes on Data Quality.

Legend

  • E = Estimated
  • M = Missing
  • NA = Not Available
  • ‡ = Partner data that is not subject to review by the National Climate Archives
Date modified: